Flora, IL

4:28 AM CST on January 22, 2017 (GMT -0600)
Flora Municipal

Weather History for KFOA - December, 2011

Change the Weather History Date:

Wednesday, December 14, 2011

  Actual Average (KSLO) Record (KSLO)
Temperature  
Mean Temperature 52 °F -  
Max Temperature 57 °F 44 °F 70 °F (1984)
Min Temperature 46 °F 26 °F -1 °F (1985)
Degree Days  
Heating Degree Days 14    
Growing Degree Days 2 (Base 50)    
Moisture  
Dew Point 49 °F    
Average Humidity 88    
Maximum Humidity 94    
Minimum Humidity 82    
Precipitation  
Precipitation 0.01 in - - ()
Sea Level Pressure  
Sea Level Pressure 30.10 in    
Wind  
Wind Speed 9 mph (SSE)    
Max Wind Speed 24 mph    
Max Gust Speed 30 mph    
Visibility 6 miles    
Events Rain , Thunderstorm    
Averages and records for this station are not official NWS values.
T = Trace of Precipitation, MM = Missing Value Source: NWS Daily Summary

Daily Weather History Graph

Daily Weather History Graph

Search for Another Location

Airport or City:

Trip Planner

Search our weather history database for the weather conditions in past years. The results will help you decide how hot, cold, wet, or windy it might be!

Date:

Astronomy

Dec. 14, 2011 Rise Set
Actual Time 7:03 AM CST 4:33 PM CST
Civil Twilight 6:33 AM CST 5:02 PM CST
Nautical Twilight 6:00 AM CST 5:36 PM CST
Astronomical Twilight 5:28 AM CST 6:08 PM CST
Moon 8:50 PM CST (12/14) 9:50 AM CST (12/14)
Length of Visible Light 10h 29m
Length of Day
9h 29m
Waning Gibbous, 83% of the Moon is Illuminated
Dec 14
Waning Gibbous
Dec 17
Last Quarter
Dec 24
New
Jan 1
First Quarter
Jan 9
Full

Hourly Weather History & Observations

Time (CST) Temp. Windchill Dew Point Humidity Pressure Visibility Wind Dir Wind Speed Gust Speed Precip Events Conditions
12:15 AM 46.4 °F 44.3 °F 44.4 °F 93% 30.26 in 2.5 mi ESE 4.6 mph - N/A   Overcast
12:35 AM 46.6 °F - 44.6 °F 93% 30.26 in 2.5 mi Calm Calm - N/A   Overcast
1:15 AM 46.8 °F - 44.8 °F 93% 30.24 in 2.5 mi SE 6.9 mph - N/A   Overcast
1:35 AM 47.1 °F - 45.1 °F 93% 30.24 in 2.5 mi SE 6.9 mph - N/A   Overcast
1:55 AM 47.3 °F - 45.1 °F 92% 30.24 in 3.0 mi SE 6.9 mph - N/A   Overcast
2:15 AM 46.9 °F - 44.8 °F 92% 30.23 in 2.5 mi SE 8.1 mph - N/A   Overcast
2:35 AM 47.1 °F - 45.0 °F 92% 30.21 in 2.0 mi SE 8.1 mph - N/A   Overcast
2:55 AM 47.7 °F - 45.5 °F 92% 30.20 in 2.5 mi SE 6.9 mph - N/A   Light Drizzle
3:15 AM 48.0 °F - 45.7 °F 92% 30.16 in 2.5 mi SE 15.0 mph - N/A   Overcast
3:35 AM 49.3 °F - 46.9 °F 92% 30.16 in 3.0 mi SSE 11.5 mph 17.3 mph N/A   Overcast
3:55 AM 49.3 °F - 46.8 °F 91% 30.16 in 3.0 mi SSE 8.1 mph - N/A   Light Drizzle
4:15 AM 49.3 °F - 46.8 °F 91% 30.16 in 3.0 mi SSE 6.9 mph - N/A   Overcast
4:35 AM 49.6 °F - 47.3 °F 92% 30.17 in 3.0 mi South 6.9 mph - N/A   Overcast
4:55 AM 49.8 °F - 47.3 °F 91% 30.18 in 4.0 mi South 8.1 mph - N/A   Overcast
5:15 AM 50.0 °F - 48.2 °F 94% 30.18 in 3.0 mi South 4.6 mph - N/A   Overcast
5:35 AM 49.6 °F - 47.3 °F 92% 30.19 in 3.0 mi South 6.9 mph - N/A   Overcast
5:55 AM 49.5 °F - 46.9 °F 91% 30.17 in 2.5 mi SE 6.9 mph - N/A   Overcast
6:15 AM 49.3 °F - 46.8 °F 91% 30.16 in 2.0 mi SE 8.1 mph - N/A   Overcast
6:35 AM 49.6 °F - 47.3 °F 92% 30.16 in 2.5 mi SSE 9.2 mph - N/A   Overcast
6:55 AM 50.2 °F - 47.7 °F 91% 30.15 in 3.0 mi SSE 9.2 mph - N/A   Overcast
7:15 AM 49.6 °F - 47.1 °F 91% 30.15 in 2.0 mi SSE 6.9 mph - N/A   Overcast
7:35 AM 50.0 °F - 47.3 °F 90% 30.15 in 1.8 mi SSE 5.8 mph - N/A   Overcast
7:55 AM 50.0 °F - 47.5 °F 91% 30.14 in 1.8 mi SE 6.9 mph - N/A   Overcast
8:15 AM 50.2 °F - 47.8 °F 92% 30.15 in 1.8 mi SSE 8.1 mph - N/A   Overcast
8:35 AM 50.5 °F - 48.2 °F 92% 30.15 in 2.0 mi SSE 8.1 mph - N/A   Overcast
8:55 AM 51.3 °F - 48.7 °F 91% 30.14 in 2.5 mi SSE 11.5 mph - N/A   Overcast
9:15 AM 52.5 °F - 49.8 °F 91% 30.14 in 3.0 mi South 12.7 mph - N/A   Overcast
9:35 AM 53.1 °F - 50.0 °F 89% 30.13 in 5.0 mi South 15.0 mph 21.9 mph N/A   Overcast
10:15 AM 53.8 °F - 50.2 °F 88% 30.13 in 10.0 mi South 15.0 mph 23.0 mph N/A   Overcast
10:35 AM 54.5 °F - 50.9 °F 88% 30.12 in 10.0 mi South 16.1 mph - N/A   Overcast
10:55 AM 54.7 °F - 50.9 °F 87% 30.11 in 10.0 mi South 18.4 mph 27.6 mph N/A   Overcast
11:15 AM 55.2 °F - 51.1 °F 86% 30.08 in 10.0 mi South 17.3 mph 20.7 mph N/A   Overcast
11:35 AM 55.6 °F - 51.3 °F 85% 30.08 in 10.0 mi South 18.4 mph 24.2 mph N/A   Overcast
11:55 AM 55.9 °F - 51.4 °F 85% 30.05 in 10.0 mi South 15.0 mph - N/A   Overcast
12:15 PM 56.3 °F - 51.4 °F 84% 30.04 in 10.0 mi South 17.3 mph - N/A   Overcast
12:35 PM 56.3 °F - 51.8 °F 85% 30.03 in 10.0 mi South 18.4 mph 23.0 mph N/A   Overcast
12:55 PM 57.2 °F - 52.0 °F 83% 30.02 in 10.0 mi South 16.1 mph 25.3 mph N/A   Overcast
1:15 PM 57.2 °F - 51.8 °F 82% 30.00 in 10.0 mi South 24.2 mph 28.8 mph N/A   Mostly Cloudy
1:35 PM 57.4 °F - 51.8 °F 82% 30.00 in 10.0 mi South 18.4 mph 29.9 mph N/A   Overcast
2:15 PM 56.7 °F - 51.4 °F 83% 29.99 in 10.0 mi South 20.7 mph 26.5 mph N/A   Overcast
2:35 PM 56.7 °F - 51.4 °F 83% 29.99 in 10.0 mi South 15.0 mph 24.2 mph N/A   Overcast
2:55 PM 56.7 °F - 51.6 °F 83% 30.00 in 10.0 mi South 17.3 mph 23.0 mph N/A   Overcast
3:15 PM 56.5 °F - 51.8 °F 84% 29.99 in 10.0 mi South 16.1 mph 24.2 mph N/A   Overcast
3:35 PM 56.5 °F - 51.8 °F 84% 29.99 in 7.0 mi South 18.4 mph 24.2 mph N/A   Overcast
3:55 PM 56.8 °F - 52.2 °F 84% 29.99 in 7.0 mi South 16.1 mph 24.2 mph N/A   Overcast
4:15 PM 57.2 °F - 52.2 °F 83% 29.99 in 10.0 mi South 15.0 mph 20.7 mph N/A   Overcast
4:35 PM 57.6 °F - 52.2 °F 82% 29.99 in 10.0 mi South 16.1 mph 20.7 mph N/A Thunderstorm Overcast
4:55 PM 57.4 °F - 52.2 °F 83% 29.98 in 10.0 mi South 13.8 mph 17.3 mph N/A Rain , Thunderstorm Light Thunderstorms and Rain
5:15 PM 57.4 °F - 52.7 °F 84% 29.97 in 10.0 mi SSE 11.5 mph - N/A Rain Light Rain
5:35 PM 57.2 °F - 52.9 °F 85% 29.96 in 10.0 mi SSE 12.7 mph - 0.01 in Rain Rain
5:55 PM 57.2 °F - 53.6 °F 88% 29.96 in 10.0 mi SSE 11.5 mph - N/A   Overcast
6:15 PM 57.7 °F - 53.2 °F 85% 29.95 in 10.0 mi SSE 13.8 mph - N/A   Overcast
6:35 PM 57.2 °F - 53.6 °F 88% 29.95 in 10.0 mi South 9.2 mph - N/A Rain , Thunderstorm Rain
6:55 PM 57.6 °F - 53.6 °F 87% 29.95 in 10.0 mi South 9.2 mph - 0.02 in Rain Light Rain
7:15 PM 57.7 °F - 53.6 °F 86% 29.95 in 10.0 mi South 10.4 mph - N/A Rain , Thunderstorm Rain
7:35 PM 57.7 °F - 53.8 °F 87% 29.95 in 10.0 mi South 10.4 mph - 0.02 in Rain Light Rain
7:55 PM 59.0 °F - 53.6 °F 82% 29.94 in 10.0 mi South 12.7 mph 17.3 mph N/A Rain Light Rain
8:15 PM 59.0 °F - 53.6 °F 82% 29.92 in 10.0 mi South 13.8 mph - N/A Rain , Thunderstorm Light Thunderstorms and Rain
8:55 PM 58.3 °F - 54.9 °F 88% 29.90 in 7.0 mi South 10.4 mph - 0.09 in Rain , Thunderstorm Rain
9:15 PM 58.5 °F - 55.4 °F 90% 29.91 in 4.0 mi South 16.1 mph 20.7 mph 0.11 in Rain Heavy Rain
9:35 PM 58.6 °F - 55.6 °F 90% 29.91 in 5.0 mi South 17.3 mph 20.7 mph 0.19 in Rain Rain
9:55 PM 59.0 °F - 55.6 °F 88% 29.92 in 7.0 mi South 17.3 mph - 0.25 in Rain , Thunderstorm Rain
10:15 PM 59.0 °F - 55.6 °F 88% 29.92 in 7.0 mi South 19.6 mph - 0.04 in Rain , Thunderstorm Heavy Thunderstorms and Rain
10:35 PM 59.0 °F - 55.6 °F 88% 29.92 in 4.0 mi South 19.6 mph 24.2 mph 0.14 in Rain , Thunderstorm Heavy Thunderstorms and Rain
10:55 PM 58.6 °F - 55.4 °F 89% 29.91 in 5.0 mi South 18.4 mph 23.0 mph 0.22 in Rain Heavy Rain
11:15 PM 58.6 °F - 55.4 °F 89% 29.90 in 5.0 mi South 21.9 mph 29.9 mph 0.05 in Rain Heavy Rain
11:35 PM 58.8 °F - 55.8 °F 90% 29.89 in 5.0 mi South 23.0 mph 31.1 mph 0.09 in Rain Rain
11:55 PM 58.6 °F - 55.6 °F 90% 29.88 in 7.0 mi South 21.9 mph 27.6 mph 0.11 in Rain Light Rain